Regional Weather Roundup
Issued by NWS Sioux Falls, SD

Home | Current Version | Previous Version | Text Only | Print | Product List | Glossary On
Versions: 1 2 3 4 5 6 7 8 9 10 11 12 13 14 15 16 17 18 19 20 21 22 23 24 25 26 27 28 29 30 31 32 33 34 35 36 37 38 39 40 41 42 43 44 45 46 47 48 49 50
000
ASUS43 KFSD 220910
RWRFSD

WEATHER ROUNDUP FOR SE SOUTH DAKOTA/SW MINNESOTA/NW IOWA
NATIONAL WEATHER SERVICE SIOUX FALLS SD
300 AM CST SUN JAN 22 2017

NOTE: "FAIR" INDICATES FEW OR NO CLOUDS BELOW 12,000 FEET WITH NO
SIGNIFICANT WEATHER AND OR OBSTRUCTIONS TO VISIBILITY.


SDZ038>040-050-052>070-221000-
SOUTHEAST SOUTH DAKOTA

CITY           SKY/WX    TMP DP  RH WIND       PRES   REMARKS
BROOKINGS      CLOUDY    31  30  96 NW7       29.62R FOG     WCI  24
CHAMBERLAIN    MOCLDY    21  20  96 CALM      29.69R FOG
HURON          CLOUDY    30  29  96 NW9       29.67R WCI  22
MADISON        CLOUDY    30  30 100 NW12        N/A  WCI  21
MITCHELL       CLOUDY    32  29  88 W8        29.67R WCI  25
SIOUX FALLS    CLOUDY    32  30  92 NW10      29.62S WCI  24
WINNER         FAIR      28  24  85 W8        29.69R WCI  20
YANKTON        CLOUDY    30  27  86 NW14      29.65R WCI  20
$$

MNZ071-072-080-081-089-090-097-098-221000-
SOUTHWEST MINNESOTA

CITY           SKY/WX    TMP DP  RH WIND       PRES   REMARKS
FAIRMONT       FOG       34  33  96 NW12      29.58R VSB 1/2 WCI  25
JACKSON        FOG       32  32 100 NW10      29.59R VSB 3/4 WCI  24
LUVERNE        CLOUDY    32  28  86 NW9       29.62R WCI  24
MARSHALL       FOG       33  33 100 NW10      29.62R VSB 1   WCI  25
MONTEVIDEO     FOG       34  34 100 N5        29.63R VSB 1/2 WCI  30
PIPESTONE      CLOUDY    34  32  93 NW7       29.60R FOG     WCI  28
REDWOOD FALLS  FOG       34  32  92 NW6       29.60R VSB 1/2 WCI  29
TRACY          FOG       34  34 100 NW9       29.61R VSB 1/2 WCI  27
WINDOM         DRZL/FOG  34  34 100 NW8       29.58S VSB 1/2 WCI  27
WORTHINGTON    CLOUDY    32  31  96 W10       29.60R WCI  24
$$

IAZ001>003-012>014-020>022-031-032-NEZ013-014-SDZ071-221000-
NORTHWEST IOWA

CITY           SKY/WX    TMP DP  RH WIND       PRES   REMARKS
CHEROKEE       CLOUDY    32  31  98 NW7       29.61S WCI  26
DENISON        CLOUDY    30  30 100 NW7       29.61R WCI  23
ESTHERVILLE    CLOUDY    32  32 100 NW10      29.58R FOG     WCI  24
LE MARS        CLOUDY    32  30  93 NW8       29.64R WCI  25
ORANGE CITY    CLOUDY    32  30  93 NW12      29.62R WCI  23
SHELDON        CLOUDY    32  32 100 NW12      29.59S WCI  23
SIOUX CITY     CLOUDY    33  30  88 NW12      29.63S WCI  24
SPENCER          N/A    N/A N/A N/A MISG      29.59R
STORM LAKE     CLOUDY    32  30  93 NW12      29.60R WCI  23
$$

ABBREVIATIONS USED IN REMARKS
   TC - TEMPERATURE IN CELSIUS
  WCI - WIND CHILL INDEX
   HX - HEAT INDEX
  VSB - VISIBILITY




USA.gov is the U.S. government's official web portal to all federal, state and local government web resources and services.